TERRA

Last updated on Sat Jul 05 2025 00:02:14 GMT+0000 (Coordinated Universal Time)

1 25994U 99068A 25185.64979589 .00000322 00000+0 75170-4 0 9999 2 25994 97.9971 243.0187 0001179 213.7685 297.5684 14.60724783358861
UTC large
Height (km)
Speed (km/s)
/
Latitude / Longitude
Inclination (degrees)
Orbital Period (minutes)
Azimuth
Elevation
Range (km)
Doppler Factor

Next 0 passes for location: London (51.5072 / 0.1276)

Sorry there are no passes over London.